CW9386 Weather Reports


time (UTC)temp
C
wind
direction
speed
KPH
gust
KPH
rain 1hr
cm
rain 24hr
cm
rain mn
cm
humidity
%
barometer
mb
20260509124716 12 40 3.2 8.0 0.00 0.00 0.00 33 1014.7
20260509123711 12 5 4.8 11.3 0.00 0.00 0.00 33 1014.6
20260509121721 13 173 3.2 6.4 0.00 0.00 0.00 33 1014.0
20260509120720 13 78 1.6 3.2 0.00 0.00 0.00 32 1013.5
20260509115715 14 84 4.8 8.0 0.00 0.00 0.00 31 1013.3
20260509114710 15 90 1.6 3.2 0.00 0.00 0.00 29 1014.1
20260509113712 15 11 0.0 1.6 0.00 0.00 0.00 28 1013.9
20260509112711 15 11 0.0 1.6 0.00 0.00 0.00 27 1013.8
20260509111710 15 10 0.0 1.6 0.00 0.00 0.00 27 1013.7
20260509105707 16 10 1.6 6.4 0.00 0.00 0.00 25 1013.7
20260509104702 16 360 4.8 6.4 0.00 0.00 0.00 25 1013.7
20260509103714 17 44 0.0 3.2 0.00 0.00 0.00 24 1013.5
20260509102709 17 58 1.6 4.8 0.00 0.00 0.00 24 1013.5
20260509101709 17 88 0.0 9.7 0.00 0.00 0.00 22 1013.5
20260509100715 17 97 3.2 6.4 0.00 0.00 0.00 22 1013.4
20260509095711 17 93 4.8 6.4 0.00 0.00 0.00 22 1012.4
20260509094707 18 102 3.2 9.7 0.00 0.00 0.00 22 1012.5
20260509093707 18 93 4.8 6.4 0.00 0.00 0.00 21 1012.4
20260509092704 18 97 4.8 11.3 0.00 0.00 0.00 21 1012.4
20260509091659 18 101 3.2 8.0 0.00 0.00 0.00 21 1012.5
20260509085716 18 90 6.4 11.3 0.00 0.00 0.00 21 1012.6
20260509084713 18 98 6.4 11.3 0.00 0.00 0.00 21 1012.7
20260509082718 19 96 1.6 6.4 0.00 0.00 0.00 20 1012.8
20260509081708 19 105 3.2 4.8 0.00 0.00 0.00 20 1012.6
20260509080700 20 91 1.6 6.4 0.00 0.00 0.00 19 1012.7
20260509075715 20 86 3.2 8.0 0.00 0.00 0.00 19 1012.9
20260509073711 20 107 3.2 6.4 0.00 0.00 0.00 19 1012.9
20260509072705 20 102 4.8 9.7 0.00 0.00 0.00 19 1012.9
20260509070711 20 105 3.2 6.4 0.00 0.00 0.00 19 1013.2
20260509065702 20 107 1.6 4.8 0.00 0.00 0.00 19 1013.2
20260509064714 20 97 1.6 4.8 0.00 0.00 0.00 18 1013.3
20260509062701 20 87 1.6 8.0 0.00 0.00 0.00 19 1013.2
20260509060712 20 99 3.2 11.3 0.00 0.00 0.00 19 1013.3
20260509055708 20 90 1.6 11.3 0.00 0.00 0.00 19 1013.4
20260509054707 19 97 4.8 11.3 0.00 0.00 0.00 20 1013.4
20260509053713 19 81 6.4 8.0 0.00 0.00 0.00 20 1013.5
20260509051712 20 82 4.8 8.0 0.00 0.00 0.00 19 1013.7
20260509050702 20 76 4.8 6.4 0.00 0.00 0.00 19 1013.8
20260509045659 21 88 6.4 6.4 0.00 0.00 0.00 18 1013.8
20260509044713 20 94 1.6 4.8 0.00 0.00 0.00 18 1013.8
20260509043709 20 105 3.2 6.4 0.00 0.00 0.00 19 1013.8
20260509042703 20 105 0.0 4.8 0.00 0.00 0.00 20 1013.7
20260509041702 20 90 3.2 6.4 0.00 0.00 0.00 20 1013.5
20260509040703 20 146 1.6 8.0 0.00 0.00 0.00 21 1013.5
20260509035701 20 94 3.2 4.8 0.00 0.00 0.00 21 1013.4
20260509034656 20 115 1.6 4.8 0.00 0.00 0.00 21 1013.1
20260509033657 21 71 3.2 8.0 0.00 0.00 0.00 20 1012.9
20260509032708 21 76 4.8 8.0 0.00 0.00 0.00 19 1012.8
20260509031704 22 72 4.8 8.0 0.00 0.00 0.00 18 1012.7
20260509030701 23 63 3.2 6.4 0.00 0.00 0.00 16 1012.5
20260509025657 25 88 1.6 3.2 0.00 0.00 0.00 14 1012.4
20260509024709 26 35 0.0 1.6 0.00 0.00 0.00 13 1012.2
20260509023707 26 34 0.0 1.6 0.00 0.00 0.00 12 1012.1
20260509022701 27 44 0.0 0.0 0.00 0.00 0.00 12 1011.9
20260509021711 27 46 0.0 3.2 0.00 0.00 0.00 11 1011.8
20260509020706 28 30 0.0 4.8 0.00 0.00 0.00 10 1011.8
20260509015702 28 360 3.2 6.4 0.00 0.00 0.00 9 1011.8
20260509013657 29 13 1.6 8.0 0.00 0.00 0.00 8 1011.6
20260509012711 30 355 4.8 8.0 0.00 0.00 0.00 8 1011.6
20260509011704 30 23 8.0 16.1 0.00 0.00 0.00 7 1011.5
20260509010702 30 9 9.7 19.3 0.00 0.00 0.00 7 1011.6
20260509005712 30 5 12.9 19.3 0.00 0.00 0.00 7 1011.6
20260509004704 31 355 12.9 16.1 0.00 0.00 0.00 7 1011.6
20260509003656 31 329 6.4 12.9 0.00 0.00 0.00 7 1011.6
20260509002652 31 12 3.2 19.3 0.00 0.00 0.00 8 1011.7
20260509000657 31 302 1.6 22.5 0.00 0.00 0.00 8 1011.7
20260508235653 30 325 1.6 24.1 0.00 0.00 0.00 8 1011.0
20260508233708 31 115 8.0 14.5 0.00 0.00 0.00 8 1011.0
20260508232702 31 347 11.3 17.7 0.00 0.00 0.00 8 1011.0
20260508231658 31 82 6.4 22.5 0.00 0.00 0.00 8 1011.0
20260508225707 31 11 9.7 17.7 0.00 0.00 0.00 8 1011.2
20260508224704 31 360 3.2 20.9 0.00 0.00 0.00 8 1011.2
20260508223701 31 342 19.3 27.4 0.00 0.00 0.00 8 1011.2
20260508222650 31 320 19.3 29.0 0.00 0.00 0.00 8 1011.3
20260508220702 31 336 3.2 24.1 0.00 0.00 0.00 8 1011.4
20260508215656 31 301 8.0 24.1 0.00 0.00 0.00 8 1011.4
20260508214650 31 281 3.2 11.3 0.00 0.00 0.00 8 1011.6
20260508213708 31 206 4.8 19.3 0.00 0.00 0.00 9 1011.7
20260508212705 31 13 6.4 16.1 0.00 0.00 0.00 9 1011.8
20260508211655 31 15 6.4 22.5 0.00 0.00 0.00 9 1011.9
20260508210648 30 346 6.4 24.1 0.00 0.00 0.00 9 1012.1
20260508205703 30 34 1.6 22.5 0.00 0.00 0.00 9 1012.3
20260508204656 30 236 6.4 12.9 0.00 0.00 0.00 9 1012.4
20260508203649 30 291 9.7 24.1 0.00 0.00 0.00 9 1012.5
20260508202648 30 46 14.5 22.5 0.00 0.00 0.00 8 1012.6
20260508201658 30 318 0.0 20.9 0.00 0.00 0.00 8 1012.8
20260508200657 30 215 9.7 24.1 0.00 0.00 0.00 7 1012.8
20260508194704 30 343 4.8 20.9 0.00 0.00 0.00 8 1013.2
20260508193658 30 11 8.0 19.3 0.00 0.00 0.00 8 1013.3
20260508192647 30 348 16.1 24.1 0.00 0.00 0.00 8 1013.2
20260508191703 30 15 4.8 20.9 0.00 0.00 0.00 9 1013.4
20260508190654 30 28 9.7 16.1 0.00 0.00 0.00 9 1013.5
20260508185651 30 360 1.6 4.8 0.00 0.00 0.00 12 1013.5
20260508184657 29 306 1.6 14.5 0.00 0.00 0.00 12 1013.6
20260508182648 28 67 4.8 11.3 0.00 0.00 0.00 14 1013.8
20260508181646 28 135 1.6 16.1 0.00 0.00 0.00 14 1014.1
20260508180701 27 105 0.0 12.9 0.00 0.00 0.00 14 1014.2
20260508175647 27 360 1.6 14.5 0.00 0.00 0.00 15 1014.4
20260508174700 26 344 0.0 12.9 0.00 0.00 0.00 16 1014.5
20260508173656 26 321 11.3 17.7 0.00 0.00 0.00 16 1014.6
20260508172650 26 256 1.6 14.5 0.00 0.00 0.00 16 1014.7
20260508171648 25 304 8.0 14.5 0.00 0.00 0.00 16 1014.8
20260508170645 25 293 3.2 12.9 0.00 0.00 0.00 17 1015.0
20260508165654 25 360 4.8 12.9 0.00 0.00 0.00 17 1015.2
20260508164647 25 350 3.2 14.5 0.00 0.00 0.00 18 1015.3
20260508163642 24 347 9.7 12.9 0.00 0.00 0.00 18 1015.3
20260508161656 23 338 4.8 11.3 0.00 0.00 0.00 19 1015.4
20260508160653 22 340 3.2 8.0 0.00 0.00 0.00 20 1015.5
20260508155653 22 360 4.8 8.0 0.00 0.00 0.00 21 1015.5
20260508154703 21 338 6.4 11.3 0.00 0.00 0.00 23 1015.4
20260508153656 21 355 6.4 11.3 0.00 0.00 0.00 24 1015.5
20260508145642 18 342 8.0 12.9 0.00 0.00 0.00 27 1015.6
20260508144659 18 11 6.4 11.3 0.00 0.00 0.00 28 1015.6
20260508143653 18 5 6.4 12.9 0.00 0.00 0.00 28 1015.6
20260508141641 17 349 8.0 14.5 0.00 0.00 0.00 30 1015.6
20260508135647 17 349 8.0 11.3 0.00 0.00 0.00 32 1015.7
20260508133645 15 360 1.6 4.8 0.00 0.00 0.00 37 1015.4
20260508132657 14 21 0.0 1.6 0.00 0.00 0.00 39 1015.2
20260508131648 13 74 0.0 4.8 0.00 0.00 0.00 40 1015.3
20260508130650 13 46 1.6 6.4 0.00 0.00 0.00 39 1015.1
20260508125642 13 9 3.2 8.0 0.00 0.00 0.00 38 1015.2